Weather in Suadag

Russia / Republic of North Ossetia — Alania     43°02′27″N   44°16′44″E
temp.,
°C
wind,
m/s
gust,
m/s
humid.,
%
clouds,
%
prec.,
mm/h
press.,
hPa
HPBL,
m
5 august, thu
thu500:00+20ssw33639 0.0 101635
03:00+19ssw43570 0.0 101643
06:00+19ssw33612 0.0 101732
09:00+24n2255100 0.0 1016556
12:00+26n32521 0.2 10151037
15:00+27nne225324 0.5 10141136
18:00+25n017030 2.1 1014167
21:00+20ssw4475100 2.9 101459
6 august, fri
fri600:00+19ssw44644 0.0 101445
03:00+19ssw33520 0.0 101331
06:00+19ssw32570 0.0 101329
09:00+24n21510 0.0 1012379
12:00+27nne32480 0.0 1011845
15:00+29nne22430 0.0 10091058
18:00+26sw12610 0.0 100843
21:00+21ssw44490 0.0 100944
7 august, sat
sat700:00+20ssw444292 0.0 100957
03:00+20s444273 0.0 100748
06:00+19ssw33535 0.0 100840
09:00+26nne22433 0.0 1006418
12:00+29nne23395 0.0 10061059
15:00+30n22401 0.0 1005784
18:00+27w115795 0.0 100618
21:00+23ssw4542100 0.0 100872
8 august, sun
sun800:00+22sw234696 0.0 101042
03:00+20s325699 0.0 101022
06:00+20ssw32630 0.0 101226
09:00+25n22530 0.0 1012773
12:00+28nne32475 0.0 10111158
15:00+29nne32465 0.1 10111267
18:00+25sw2265100 0.8 101240
21:00+21ssw345959 0.8 101452
9 august, mon
mon900:00+19s326342 0.0 101526
03:00+20ssw32595 0.1 101528
06:00+20sw22624 0.0 101518
09:00+24n21570 0.0 1015501
12:00+27nne325618 0.0 10141014
15:00+28nne22550 0.4 10131125
18:00+24wsw1271100 2.7 101422
21:00+19s327768 4.3 101528